Weather History for KDYS - March, 2014

Change the Weather History Date:

Monday, March 24, 2014

  Actual Average Record
Temperature  
Mean Temperature 50 °F -  
Max Temperature 71 °F 67 °F 86 °F (2015)
Min Temperature 30 °F 46 °F 26 °F (2006)
Degree Days  
Heating Degree Days 14    
Moisture  
Dew Point 30 °F    
Average Humidity 45    
Maximum Humidity 65    
Minimum Humidity 25    
Precipitation  
Precipitation 0.00 in - - ()
Sea Level Pressure  
Sea Level Pressure 30.11 in    
Wind  
Wind Speed 5 mph (SSW)    
Max Wind Speed 12 mph    
Max Gust Speed -    
Visibility 10 miles    
Events      
Averages and records for this station are not official NWS values.
T = Trace of Precipitation, MM = Missing Value Source: NWS Daily Summary

Daily Weather History Graph

Daily Weather History Graph

Search for Another Location

Airport or City:

Trip Planner

Search our weather history database for the weather conditions in past years. The results will help you decide how hot, cold, wet, or windy it might be!

Date:

Astronomy

Mar. 24, 2014 Rise Set
Actual Time 7:37 AM CDT 7:53 PM CDT
Civil Twilight 7:13 AM CDT 8:18 PM CDT
Nautical Twilight 6:44 AM CDT 8:47 PM CDT
Astronomical Twilight 6:15 AM CDT 9:16 PM CDT
Moon 2:51 AM CDT (3/24) 1:39 PM CDT (3/24)
Length of Visible Light 13h 05m
Length of Day
12h 15m
Last Quarter, 43% of the Moon is Illuminated
Mar 24
Last Quarter
Mar 30
New
Apr 7
First Quarter
Apr 15
Full
Apr 22
Last Quarter

Hourly Weather History & Observations

Time (CDT) Temp. Windchill Dew Point Humidity Pressure Visibility Wind Dir Wind Speed Gust Speed Precip Events Conditions
12:58 AM 34.9 °F - 21.2 °F 57% 30.25 in 10.0 mi South 1.2 mph - N/A   Clear
1:58 AM 34.3 °F 31.4 °F 20.3 °F 57% 30.22 in 10.0 mi South 3.5 mph - N/A   Clear
2:58 AM 35.4 °F 32.6 °F 20.3 °F 54% 30.20 in 10.0 mi South 3.5 mph - N/A   Clear
3:58 AM 33.8 °F 30.8 °F 20.8 °F 59% 30.17 in 10.0 mi SSE 3.5 mph - N/A   Clear
4:58 AM 34.0 °F - 21.7 °F 61% 30.15 in 10.0 mi Calm Calm - N/A   Clear
5:58 AM 30.2 °F - 19.4 °F 64% 30.16 in 10.0 mi South 2.3 mph - N/A   Clear
6:58 AM 32.2 °F 28.9 °F 21.7 °F 65% 30.16 in 10.0 mi SSW 3.5 mph - N/A   Clear
7:58 AM 35.6 °F - 23.0 °F 60% 30.16 in 10.0 mi South 2.3 mph - N/A   Clear
8:23 AM 37.4 °F 32.8 °F 24.8 °F 60% 30.15 in 10.0 mi SSE 5.8 mph - N/A   Mostly Cloudy
8:58 AM 41.0 °F - 24.8 °F 53% 30.16 in 10.0 mi SW 1.2 mph - N/A   Overcast
9:33 AM 46.4 °F 42.4 °F 30.2 °F 53% 30.16 in 10.0 mi SSW 8.1 mph - N/A   Overcast
9:48 AM 48.2 °F - 32.0 °F 54% 30.16 in 10.0 mi South 10.4 mph - N/A   Overcast
9:58 AM 50.0 °F - 32.0 °F 50% 30.15 in 10.0 mi South 11.5 mph - N/A   Overcast
10:58 AM 53.6 °F - 32.0 °F 44% 30.14 in 10.0 mi South 9.2 mph - N/A   Overcast
11:58 AM 57.2 °F - 37.4 °F 48% 30.13 in 10.0 mi WSW 5.8 mph - N/A   Mostly Cloudy
12:08 PM 57.2 °F - 37.4 °F 48% 30.12 in 10.0 mi SW 5.8 mph - N/A   Scattered Clouds
12:58 PM 60.8 °F - 41.0 °F 48% 30.09 in 10.0 mi NNW 1.2 mph - N/A   Clear
1:58 PM 62.6 °F - 41.0 °F 45% 30.07 in 10.0 mi NW 5.8 mph - N/A   Clear
2:58 PM 66.2 °F - 41.0 °F 40% 30.01 in 10.0 mi WSW 2.3 mph - N/A   Clear
3:58 PM 69.8 °F - 39.2 °F 33% 29.99 in 10.0 mi North 8.1 mph - N/A   Clear
4:58 PM 71.6 °F - 37.4 °F 29% 29.98 in 10.0 mi North 4.6 mph - N/A   Clear
5:58 PM 71.6 °F - 37.4 °F 29% 29.98 in 10.0 mi North 9.2 mph - N/A   Clear
6:58 PM 71.6 °F - 33.8 °F 25% 30.00 in 10.0 mi North 11.5 mph - N/A   Clear
7:03 PM 71.6 °F - 33.8 °F 25% 30.03 in 1.5 mi North 9.2 mph - N/A   Haze
7:08 PM 71.6 °F - 33.8 °F 25% 30.04 in 10.0 mi North 11.5 mph - N/A   Clear
7:58 PM 68.0 °F - 32.0 °F 26% 30.03 in 10.0 mi NE 10.4 mph - N/A   Clear
8:58 PM 62.6 °F - 32.0 °F 32% 30.07 in 10.0 mi NE 9.2 mph - N/A   Clear
9:58 PM 57.2 °F - 30.2 °F 36% 30.12 in 10.0 mi NE 11.5 mph - N/A   Clear
10:58 PM 57.2 °F - 26.6 °F 31% 30.13 in 10.0 mi NE 11.5 mph - N/A   Clear
11:58 PM 53.6 °F - 24.8 °F 33% 30.13 in 10.0 mi NE 9.2 mph - N/A   Clear